Wind_Speed
22 22 20 18 17 18 21 21 21 23 24 27 26 24 23 21 16 15 16 18 21 21 23 23 19 16 15 16 19 21 21 20 20 18 17 17 17 18 20 22 23 24 26 26 29 31 31 32 33 32 32 33 33 34 35 35 34 32 30 31 32 32 31 30 29 30 30 32 35 37 39 41 42 43 42 43 46 49 47 45 46 46 46 47 45 42 40
20 23 23 22 21 19 20 21 21 22 24 26 27 25 26 26 23 21 20 20 20 19 22 24 24 24 21 18 20 22 23 24 23 21 20 19 18 16 16 19 23 25 26 28 29 30 31 32 33 32 32 32 32 32 33 34 34 33 31 31 32 32 31 30 28 29 31 30 30 31 35 39 40 40 42 44 45 46 45 45 45 45 46 46 45 43 42
15 20 21 23 24 22 22 23 23 25 25 25 25 25 25 25 24 25 25 22 18 16 18 20 23 29 29 22 20 20 21 22 21 20 20 19 17 16 16 17 21 24 26 28 29 32 33 34 34 33 32 32 32 31 31 32 33 32 31 30 31 31 30 29 29 29 29 29 29 29 32 35 33 31 33 36 37 39 41 43 44 45 45 45 43 41 40
13 16 19 22 23 23 24 24 25 26 24 22 21 21 22 22 22 23 23 20 16 14 16 17 17 22 26 24 23 24 23 21 19 18 20 20 18 18 18 17 21 24 26 29 32 34 34 34 34 34 33 32 31 30 30 30 31 32 31 30 31 32 31 31 31 29 28 30 31 31 31 31 28 23 22 26 30 32 36 39 41 43 44 44 43 39 33
12 17 20 21 20 18 18 20 23 26 24 23 23 21 22 23 22 19 17 16 15 14 16 19 18 18 20 22 26 29 28 25 24 23 22 23 24 22 17 15 19 24 27 30 34 34 34 34 35 34 32 31 30 29 28 28 29 30 30 29 31 33 32 32 32 30 30 32 31 30 30 26 21 20 20 23 26 27 30 33 35 38 41 39 38 35 30
11 16 19 17 16 14 14 15 20 25 25 26 27 24 23 24 21 18 16 16 17 17 18 21 21 20 20 24 29 31 29 29 31 30 26 26 28 23 15 14 18 21 25 27 29 30 31 31 31 31 29 29 29 27 26 26 27 29 30 29 30 32 31 30 30 29 29 31 30 28 25 18 16 18 20 21 23 23 25 28 29 32 32 28 26 29 29
9 11 13 13 14 13 13 13 17 22 25 28 29 27 26 26 25 24 23 21 19 18 18 21 24 24 25 29 31 31 30 31 33 31 27 27 28 23 18 19 23 23 24 25 25 28 29 28 28 29 29 28 28 27 25 26 26 27 29 27 27 28 27 26 26 24 23 26 27 23 17 15 15 17 18 18 18 18 18 20 20 22 22 21 23 28 29
8 8 10 12 11 11 12 13 14 17 20 24 26 25 25 25 25 24 23 22 20 19 19 22 25 27 29 30 32 33 31 32 33 31 29 28 25 20 19 22 25 26 25 24 25 27 28 27 28 29 29 29 28 27 26 26 25 26 27 27 25 25 24 23 25 24 20 20 21 18 16 17 18 18 17 16 16 15 15 15 17 19 19 18 21 26 28
8 9 10 10 10 13 13 9 7 8 9 12 12 12 15 18 19 22 22 21 21 21 21 21 22 24 23 21 26 33 34 33 33 32 32 31 27 23 22 22 24 26 24 22 24 26 27 28 29 28 28 28 27 27 27 27 27 26 26 27 25 24 24 24 25 24 20 18 17 17 17 20 21 20 18 16 15 15 15 15 17 20 21 18 18 23 28
8 9 10 10 12 13 8 0 5 5 6 7 7 7 10 13 16 18 20 21 22 20 18 20 21 21 17 12 15 24 28 29 29 28 29 30 27 23 21 19 21 23 23 22 24 26 27 28 28 28 28 28 28 28 28 28 28 26 26 26 26 25 25 24 23 22 19 17 16 16 17 19 19 19 18 16 16 16 17 18 18 20 22 22 21 23 26
9 10 10 10 11 8 4 4 3 6 7 7 6 6 11 11 15 20 19 20 22 20 18 20 19 16 12 10 12 18 24 26 26 27 28 27 24 19 18 18 21 22 21 22 25 26 27 28 28 28 29 28 28 28 27 27 27 26 26 26 26 25 24 24 23 20 19 17 15 15 16 15 13 13 13 13 13 15 17 19 19 19 21 23 24 24 23
11 11 10 9 8 5 6 6 2 2 5 4 1 8 9 7 12 18 18 18 22 21 18 18 15 11 10 11 13 18 24 23 21 20 21 21 21 19 18 18 20 20 21 23 26 26 28 31 31 30 29 29 29 29 27 26 25 25 25 25 25 25 24 23 22 19 18 18 17 15 15 14 11 11 11 11 12 13 15 17 18 18 18 20 23 22 21
12 12 11 9 7 4 6 5 2 2 2 4 7 7 3 7 12 16 17 16 17 17 18 17 16 15 15 16 15 14 11 11 13 12 12 14 15 16 16 18 19 20 22 24 24 25 27 30 30 30 30 30 30 29 27 25 25 25 25 25 25 25 24 22 20 18 17 18 17 15 14 13 13 13 13 14 15 15 16 17 18 16 14 17 21 21 20
12 11 11 10 7 4 7 5 4 4 6 7 6 2 4 7 12 15 16 15 12 13 19 22 20 20 20 19 17 11 4 6 8 8 9 11 12 13 16 19 21 21 21 22 22 23 24 26 26 28 31 33 32 30 27 26 26 25 27 28 27 26 25 21 19 18 17 16 16 15 13 13 15 16 16 17 17 17 17 18 17 13 12 15 17 17 17
10 10 11 11 8 6 7 5 5 6 6 4 3 4 6 7 10 13 13 13 10 10 16 18 18 21 19 16 16 13 8 7 7 7 8 10 12 15 18 20 19 20 21 22 23 23 25 26 26 27 32 35 34 31 29 28 27 28 29 30 29 27 25 22 19 19 16 14 13 13 12 14 16 18 19 19 18 18 17 16 13 10 10 11 11 12 13
10 12 11 6 3 7 9 3 1 2 1 5 5 5 6 4 6 8 10 10 9 8 9 10 13 15 14 13 13 11 9 9 8 9 10 11 12 13 16 18 18 20 23 24 24 24 25 26 27 29 34 38 36 33 31 30 30 30 30 30 27 24 23 22 20 18 16 14 13 12 13 15 17 19 19 17 15 14 13 12 10 8 8 9 10 10 11
5 4 2 3 5 8 9 3 2 1 2 2 3 4 3 3 3 4 6 7 7 5 3 5 7 8 9 10 10 10 11 11 11 12 12 12 12 13 15 18 20 23 25 26 26 26 26 27 29 32 36 38 36 33 32 31 30 30 29 27 24 22 21 20 18 16 15 15 15 13 12 14 14 14 14 12 10 10 11 10 9 9 9 10 10 11 12
3 5 6 7 7 9 12 8 2 2 5 4 4 4 2 2 5 6 4 3 3 2 4 7 9 9 9 9 9 12 14 15 16 16 15 14 15 16 18 20 22 24 26 28 29 30 29 29 30 31 32 31 29 29 29 28 27 27 26 24 23 22 21 19 16 14 14 14 13 12 12 11 10 10 10 10 9 10 10 10 10 10 10 10 10 11 12
3 2 4 6 7 9 13 12 7 8 9 9 8 9 8 7 9 8 6 5 4 5 7 9 11 12 13 12 12 14 16 18 20 20 20 19 19 19 20 22 24 27 29 30 31 31 30 29 28 28 27 25 23 25 26 26 25 24 23 23 23 22 20 18 15 13 13 12 11 11 11 10 9 9 10 10 10 12 12 12 11 11 12 12 12 12 13
3 4 6 8 11 13 14 13 11 11 13 14 13 12 12 13 13 12 11 10 9 10 11 12 13 15 15 15 15 16 17 18 19 21 21 21 20 21 21 22 23 26 27 28 28 28 27 26 25 24 23 22 22 25 26 25 24 23 22 21 21 20 18 16 15 14 14 13 12 12 12 12 12 12 12 10 10 11 13 13 12 13 13 13 13 13 13
4 8 9 10 11 12 14 15 14 14 16 19 18 17 16 16 17 18 18 17 16 17 16 15 16 18 18 18 19 19 18 18 18 19 20 20 21 21 21 21 23 24 25 26 27 27 25 23 23 24 24 24 24 25 24 23 22 21 21 20 19 18 17 16 16 16 15 14 13 12 14 17 17 16 16 15 13 13 15 16 16 15 14 12 12 12 12
2 4 8 8 6 7 11 14 16 16 19 22 22 22 21 21 21 22 21 21 22 23 23 21 21 22 22 22 22 22 21 20 19 19 19 19 20 20 20 21 23 24 25 25 26 26 24 22 22 22 22 21 20 19 18 19 20 20 20 19 16 15 15 16 16 16 16 15 14 13 13 16 17 17 18 18 17 15 16 18 18 16 14 13 12 12 12
2 3 5 10 9 9 13 14 15 17 20 23 24 24 24 25 25 25 25 25 25 26 27 27 26 25 25 24 24 23 22 20 19 20 19 19 19 18 18 19 20 20 20 19 19 20 20 18 18 18 17 17 16 15 15 16 18 19 19 18 16 16 16 17 17 17 17 16 16 15 13 13 15 16 16 18 17 14 14 16 17 15 13 13 12 11 11
5 6 3 12 13 14 15 15 17 19 23 27 29 27 26 27 27 27 28 28 26 25 26 28 28 27 26 25 24 23 22 21 21 21 21 21 20 19 18 19 19 18 17 16 15 16 15 14 14 14 15 15 13 12 13 14 15 16 16 16 16 16 16 17 18 18 17 16 16 16 14 14 15 15 15 17 18 15 12 14 16 15 13 11 10 10 11
1 3 6 14 17 16 16 17 20 21 21 24 25 23 22 23 23 23 25 25 24 23 22 23 25 26 26 26 24 22 21 21 20 21 21 22 21 20 20 19 17 16 15 14 14 13 12 13 13 12 13 13 12 11 12 12 13 16 17 16 16 16 17 18 19 18 16 16 16 15 14 15 16 15 14 15 17 17 15 14 15 15 13 11 10 10 11
4 6 11 17 16 13 11 14 17 18 17 15 15 14 14 14 15 16 17 17 18 19 18 18 19 20 20 21 22 20 19 19 19 20 21 21 21 21 20 18 16 14 11 10 9 8 8 10 11 10 11 11 10 10 12 12 13 16 17 16 16 16 17 18 19 17 16 16 16 15 14 15 15 14 13 13 14 15 15 14 14 13 12 10 9 10 11
10 6 10 12 11 9 10 12 15 16 15 13 13 14 12 8 7 10 12 13 13 15 15 15 15 14 13 16 18 17 16 14 15 17 18 19 18 17 16 15 14 12 9 8 7 6 7 9 10 11 11 11 10 12 13 13 15 18 17 15 16 17 17 17 17 16 15 16 16 14 14 14 14 13 13 12 11 11 12 12 12 12 11 9 8 8 9
20 15 8 9 12 13 14 15 16 17 16 15 18 19 16 11 8 9 12 13 13 12 12 13 12 11 11 12 13 14 14 13 12 12 13 14 14 12 11 11 10 9 8 7 6 5 7 10 11 11 10 10 11 12 13 15 18 19 17 16 17 17 16 15 15 15 15 15 15 15 14 14 14 13 13 12 11 10 12 13 12 11 12 10 7 9 11
21 22 20 17 17 17 16 15 16 17 16 15 17 19 18 15 12 11 11 12 12 11 10 11 11 10 10 12 12 13 14 14 13 11 10 10 9 7 7 8 8 7 6 5 4 3 4 7 9 9 9 10 11 13 15 17 19 18 16 14 15 15 15 14 13 14 14 14 14 15 15 14 14 13 13 12 11 11 12 12 10 11 13 11 8 10 13
17 19 21 21 19 17 17 16 16 17 16 15 15 16 15 12 10 9 9 10 9 9 9 10 10 9 9 10 11 11 10 10 11 10 9 7 6 4 3 6 7 6 4 3 4 3 2 5 7 8 10 12 13 15 16 17 17 16 14 14 15 15 14 14 13 13 14 14 14 15 15 13 13 13 12 12 11 11 10 11 10 10 12 11 9 10 12
18 20 21 21 19 18 18 16 15 15 15 14 15 15 13 11 9 8 7 7 6 6 5 5 5 6 6 5 5 6 6 6 7 6 5 4 3 2 2 4 4 4 3 3 3 3 3 5 6 8 11 12 12 14 17 17 17 16 15 15 17 17 16 15 14 13 13 14 15 15 14 13 13 13 11 11 11 10 9 10 10 10 9 7 7 9 11
16 19 20 19 18 17 17 15 14 13 13 12 13 14 12 10 9 7 5 6 5 4 3 2 2 2 2 3 1 2 2 2 1 1 1 2 2 1 3 3 3 4 5 4 3 3 4 5 6 9 12 12 11 14 16 16 17 16 14 14 16 16 15 13 12 11 12 14 15 15 13 13 12 12 11 10 10 9 9 9 9 10 8 6 7 9 11
14 14 15 16 16 16 15 14 12 12 11 11 12 12 11 9 9 8 7 6 5 5 4 4 3 2 2 1 1 1 1 1 2 2 1 2 2 2 3 3 3 3 4 4 4 4 4 5 6 8 10 11 11 12 14 15 16 16 13 13 13 12 12 12 13 12 12 14 14 14 13 12 12 11 11 10 9 9 9 8 8 8 8 6 7 9 11
13 11 10 11 11 12 13 13 11 11 11 10 10 10 10 10 9 8 7 6 6 5 5 5 4 4 3 3 2 1 1 1 1 1 2 3 3 3 3 3 3 3 3 4 6 5 6 7 7 7 7 8 9 10 11 13 14 14 12 12 11 10 9 10 12 12 12 13 14 14 13 13 11 11 10 10 9 8 8 8 7 7 7 6 6 9 12
10 9 10 10 9 10 11 11 11 11 11 11 11 10 10 10 10 9 9 8 8 8 7 6 6 5 5 4 4 4 3 3 3 3 3 4 3 3 3 3 3 4 4 3 4 4 5 6 7 7 7 8 9 9 9 10 11 12 12 12 11 9 8 9 10 11 12 13 13 13 13 12 12 11 11 10 8 8 7 7 6 6 5 5 7 11 14
7 7 7 8 9 9 9 9 9 9 10 10 10 10 11 11 11 11 11 10 10 9 8 8 7 7 6 6 5 5 5 5 4 4 4 4 4 3 3 3 4 5 5 6 5 4 2 3 7 9 9 8 8 9 10 10 10 10 11 11 10 9 9 10 11 12 12 12 12 13 13 13 13 12 11 9 7 7 6 6 6 5 5 5 7 11 14
7 7 7 8 8 9 9 8 7 8 9 9 8 9 10 10 11 10 10 10 10 10 9 9 8 7 7 6 6 6 6 6 5 5 5 5 4 4 5 6 6 7 8 9 8 5 3 3 7 10 9 7 9 11 12 12 10 8 8 10 10 9 10 12 12 13 13 14 15 16 15 13 11 10 9 8 7 6 5 5 6 6 5 5 7 9 11
8 8 8 8 7 8 8 7 6 6 7 7 7 7 8 8 9 9 9 9 9 10 10 10 9 8 7 7 7 7 7 6 6 6 6 6 6 6 7 7 7 8 9 9 7 5 6 7 7 8 7 6 9 11 12 9 7 6 6 7 8 9 12 14 14 14 14 15 16 15 12 10 9 8 7 6 6 5 5 5 6 6 6 5 7 8 9
9 9 8 8 7 6 6 6 6 6 7 7 7 7 7 7 8 8 8 8 8 9 10 10 10 9 9 8 8 7 7 6 6 5 5 6 7 7 8 7 7 7 9 8 7 7 10 10 8 7 7 6 5 8 9 9 8 8 8 9 9 10 12 13 14 14 14 14 13 11 9 8 7 6 6 6 6 6 6 6 6 7 7 7 7 8 8
9 8 8 8 7 7 8 8 7 7 7 7 7 7 7 6 6 6 7 7 8 9 9 9 10 10 9 9 9 8 8 7 7 5 5 6 7 8 9 8 7 8 9 8 7 8 10 10 9 9 11 10 8 9 11 11 11 10 10 11 11 12 13 14 14 14 13 11 9 8 7 6 7 6 6 6 6 5 5 5 6 6 6 7 7 7 7
10 9 9 8 8 8 8 8 8 8 8 8 8 7 6 6 6 7 7 8 9 9 9 9 10 10 10 10 10 10 10 11 11 10 9 8 8 8 9 9 7 7 7 7 7 6 7 8 8 9 9 9 10 11 12 11 10 10 11 11 11 11 11 12 11 11 9 8 7 6 5 6 7 8 7 6 6 6 6 6 6 6 6 6 6 7 7
12 11 11 10 9 8 8 9 9 9 9 9 9 8 8 8 8 9 9 9 9 9 10 11 11 11 10 9 10 10 11 11 12 12 12 12 10 9 9 9 8 7 8 9 8 7 7 8 8 7 7 7 9 11 10 8 7 7 8 8 8 8 8 8 7 8 8 8 8 7 7 8 9 8 7 7 7 7 7 7 7 7 7 7 7 7 8
12 12 11 10 10 9 9 10 10 10 10 10 10 10 10 10 10 10 10 10 10 10 10 11 11 10 10 9 9 9 10 10 10 11 12 13 12 11 11 10 9 8 9 10 8 6 7 7 6 6 7 9 11 11 9 5 5 5 5 5 5 6 7 7 6 5 7 7 8 9 9 9 9 8 7 7 8 7 7 7 7 7 8 8 8 8 9
11 11 11 10 9 9 9 10 10 10 10 10 10 10 10 10 11 10 10 10 10 10 10 10 10 10 10 10 10 10 10 10 10 9 9 10 11 11 10 9 8 7 8 8 7 6 6 5 4 5 6 9 11 10 7 3 4 5 4 4 4 5 6 6 6 6 7 8 8 8 9 8 8 8 8 8 7 6 5 5 5 5 6 6 6 7 8
11 11 10 10 10 9 9 9 9 9 9 10 10 10 10 10 10 10 10 10 10 10 10 11 11 11 10 10 10 10 10 10 11 10 9 9 9 9 8 7 7 5 4 6 5 3 3 3 4 3 3 5 7 7 5 3 3 4 4 4 4 5 6 6 6 7 8 8 8 8 8 7 6 6 6 6 6 5 4 4 4 4 4 5 6 6 7
9 10 10 10 9 9 8 8 8 7 8 9 10 10 9 9 9 9 9 9 9 9 10 11 11 12 11 11 10 10 9 9 10 11 10 9 9 8 7 6 6 5 5 5 4 2 2 3 3 2 1 4 6 5 3 2 3 4 4 4 5 5 5 6 6 6 7 7 7 7 7 6 5 5 5 5 4 3 4 4 5 5 6 6 6 6 7
8 9 9 9 8 8 8 8 8 8 8 8 8 8 8 8 8 8 8 7 6 6 8 9 10 10 10 9 9 10 10 9 9 10 10 9 8 8 8 8 6 6 5 4 2 1 2 2 2 1 0 3 5 4 1 2 3 3 3 4 4 4 5 5 6 6 6 7 7 7 7 6 5 4 5 5 4 4 4 5 5 5 6 6 7 8 8
7 9 9 8 8 7 7 7 8 8 8 8 8 7 6 6 6 6 7 7 4 2 4 6 7 7 6 6 7 9 10 10 9 9 9 8 7 7 7 8 8 8 7 5 3 4 4 3 1 1 0 3 4 3 2 2 3 3 3 3 4 4 4 4 5 5 6 6 6 6 6 6 5 5 5 6 6 7 7 7 8 8 9 9 8 7 7
6 7 8 8 8 8 8 8 8 8 7 7 7 7 6 5 5 6 7 7 6 5 4 6 6 6 5 6 8 10 10 9 8 8 8 8 7 6 6 7 8 9 8 6 5 7 7 6 5 4 3 3 4 4 5 5 4 4 4 4 4 4 4 4 5 5 6 6 6 6 6 6 7 8 8 8 9 10 10 10 10 11 11 10 9 9 10
6 6 7 8 8 9 9 9 8 8 7 6 7 7 8 7 6 6 6 7 9 9 8 7 7 7 7 8 9 10 10 9 10 10 9 8 8 8 7 7 7 9 10 8 6 8 10 10 9 8 7 7 6 7 7 7 7 7 7 6 6 6 6 6 6 6 6 7 7 8 8 8 9 10 11 10 10 11 11 11 12 13 13 12 12 13 12
7 7 7 7 7 8 8 8 8 7 7 7 7 7 7 7 6 6 6 7 8 8 7 7 7 8 8 8 8 8 9 9 10 11 11 10 10 10 9 8 8 9 10 9 7 7 9 10 10 10 9 9 9 9 9 9 9 9 9 8 8 8 8 9 8 8 8 9 10 11 11 11 11 12 13 13 12 12 12 12 13 14 13 12 12 12 11
9 9 8 7 7 7 8 9 9 8 7 7 7 7 6 7 7 6 6 7 7 7 7 7 8 8 8 8 8 9 9 9 10 10 11 11 11 10 10 11 10 10 9 9 9 9 9 8 9 10 10 9 9 10 10 11 11 11 11 11 10 10 10 10 10 9 10 11 12 12 12 12 13 14 14 14 13 13 13 13 13 13 13 12 12 12 11
Wind_Direction
226 239 241 232 224 229 235 226 216 220 227 228 229 229 228 228 234 239 229 224 228 235 241 243 240 233 219 208 221 237 234 228 236 236 213 199 196 191 192 196 198 199 197 194 193 192 191 191 192 194 196 197 198 198 198 199 201 203 202 201 202 202 201 201 201 203 205 211 220 224 227 234 241 242 240 237 241 247 250 249 249 248 248 247 246 243 241
221 229 238 241 238 235 236 234 227 222 224 228 233 237 235 231 235 242 240 233 230 230 235 239 242 247 245 222 214 225 230 229 234 237 229 222 218 211 203 200 198 196 195 194 192 191 191 192 193 194 194 194 194 195 196 197 199 202 202 202 200 198 199 198 197 199 203 207 213 219 224 232 239 242 240 241 244 248 249 249 248 247 246 247 247 244 241
232 227 231 236 240 241 238 234 231 230 228 226 227 233 237 237 237 238 240 241 238 234 235 235 235 241 247 241 223 217 221 225 229 234 240 240 233 230 226 212 199 196 195 193 191 191 193 194 194 193 192 192 192 194 195 196 197 198 199 198 196 195 195 193 193 197 203 208 213 219 228 237 245 248 245 245 246 247 248 247 247 247 247 246 244 242 241
239 234 234 235 237 242 245 242 236 234 234 231 230 229 230 235 238 238 238 240 238 235 237 237 231 234 241 246 242 236 231 228 226 230 243 253 251 247 245 226 202 197 197 197 196 196 194 194 194 193 192 191 190 192 193 193 193 193 193 192 191 189 189 191 195 198 201 209 217 224 233 242 250 252 248 247 248 247 246 248 250 251 250 246 243 240 236
234 229 233 238 239 239 243 242 239 238 237 234 234 232 228 230 235 237 237 240 241 238 239 240 232 227 233 240 243 243 242 243 243 237 238 248 252 253 254 236 210 201 202 204 203 198 193 193 195 194 191 190 188 188 189 188 188 188 188 187 187 189 190 194 200 202 205 212 219 228 237 242 242 243 244 245 247 248 248 250 253 254 252 247 243 239 232
233 227 228 235 237 235 236 234 238 243 244 243 241 236 229 228 232 236 236 240 243 237 234 240 239 230 228 235 241 243 241 243 247 242 233 237 247 251 249 244 235 220 207 205 202 196 192 193 194 191 188 189 188 186 185 185 185 186 186 184 186 190 192 194 200 204 209 214 219 228 234 229 220 227 234 239 244 247 249 250 252 254 251 244 239 236 231
232 228 226 230 230 234 239 236 235 239 243 249 253 252 241 232 232 237 237 234 237 237 232 235 240 239 235 236 241 243 240 239 241 237 229 232 241 243 234 234 240 229 209 201 198 193 191 191 188 186 187 189 187 184 183 183 184 185 184 181 181 186 188 191 196 201 205 211 217 219 213 204 207 215 220 229 236 238 241 245 246 249 246 237 234 233 228
227 222 221 226 235 244 245 243 241 239 239 243 250 255 251 239 231 235 240 237 232 234 236 235 234 235 235 238 242 242 238 238 238 234 230 229 230 231 225 220 220 214 206 201 197 193 188 185 183 184 186 185 182 179 179 180 179 179 178 178 179 181 183 185 193 199 200 203 208 203 194 196 206 212 216 222 227 228 234 239 240 245 246 237 231 230 226
222 227 228 232 247 248 240 242 258 260 259 257 257 265 270 265 249 236 238 244 239 232 232 234 234 232 230 233 239 236 233 235 237 234 232 229 226 226 224 215 206 205 203 198 194 191 184 180 181 180 180 178 174 173 175 175 174 174 174 176 178 179 179 182 191 198 197 192 192 189 191 198 203 209 217 221 223 227 232 236 236 241 247 244 232 226 224
217 230 235 232 239 239 227 317 8 350 328 324 331 312 287 290 284 255 237 241 248 244 234 228 229 232 232 231 233 230 228 230 233 232 231 231 229 224 217 207 197 199 202 196 192 190 182 178 179 176 173 172 169 169 173 174 173 173 173 175 177 176 176 177 184 189 186 183 184 186 192 200 204 209 215 218 221 226 228 230 231 233 238 240 234 227 224
217 226 232 231 235 230 167 100 25 342 339 3 12 294 262 268 281 272 254 241 242 245 244 236 229 226 230 234 232 232 234 233 229 229 229 229 227 219 209 201 192 193 199 195 187 185 181 176 176 172 169 168 168 169 172 172 172 172 172 172 173 172 171 172 175 178 177 177 182 189 197 205 209 214 220 219 221 226 231 234 236 238 241 241 237 231 227
218 222 230 235 242 224 143 127 128 303 326 358 256 242 252 279 292 291 288 266 244 237 239 241 238 229 226 235 246 250 246 235 221 219 222 221 216 209 204 198 189 187 192 187 180 181 180 175 174 171 167 167 167 168 168 167 168 169 168 167 167 165 165 166 168 171 175 177 181 190 200 205 208 218 229 231 229 235 241 241 242 248 254 254 248 239 231
214 220 229 237 247 215 144 142 187 232 258 259 234 228 275 335 319 319 320 300 269 249 242 242 242 238 232 233 248 263 256 219 196 196 202 200 198 198 195 189 181 177 179 179 178 178 177 175 173 169 165 163 162 162 163 161 159 160 160 160 160 160 160 161 164 171 177 178 180 184 190 196 203 212 222 228 233 238 241 240 242 248 256 258 252 242 230
217 219 226 236 241 181 139 164 213 224 236 241 240 283 351 328 317 322 324 317 304 272 254 249 245 241 235 234 243 252 232 180 180 181 179 176 174 175 177 176 171 167 168 171 173 174 172 171 168 163 159 156 154 154 154 151 152 156 159 161 162 162 161 161 163 168 171 175 181 185 187 190 199 208 214 218 223 226 228 232 239 246 251 248 241 234 228
219 219 221 233 234 176 153 186 207 207 240 279 353 349 325 318 324 327 321 316 311 276 258 254 247 241 233 227 232 230 205 176 173 175 175 169 160 160 165 166 163 162 163 163 163 163 161 159 158 156 153 150 147 146 146 148 155 161 165 167 168 165 163 161 163 168 173 179 185 189 192 191 195 206 213 212 212 216 220 223 227 231 233 226 218 219 221
216 223 220 227 208 158 165 203 245 175 272 338 339 306 299 322 329 323 323 320 305 277 259 244 233 227 212 197 200 194 168 151 149 149 153 154 153 160 165 162 156 154 153 151 150 151 151 151 151 153 152 149 145 143 146 154 162 165 165 167 166 162 161 165 170 172 173 178 185 191 197 197 196 203 209 206 203 206 207 206 201 193 189 188 188 197 203
224 230 185 115 100 134 150 156 345 86 94 352 302 275 293 2 10 346 334 321 300 274 215 169 180 187 176 170 165 144 130 132 136 136 142 149 151 155 156 153 151 149 147 145 145 145 146 147 150 155 158 155 151 150 153 159 163 163 162 162 162 162 165 169 172 169 167 178 191 194 191 192 193 195 195 192 188 186 182 178 174 166 164 168 173 182 192
79 61 80 103 107 117 128 133 149 125 104 77 57 56 54 68 62 47 23 344 297 229 157 135 140 147 146 141 129 115 111 114 116 120 127 133 138 142 143 142 142 142 141 140 140 140 141 144 148 152 154 153 150 150 152 155 158 159 160 163 167 172 175 175 173 167 166 178 187 180 171 173 178 178 176 174 172 168 166 170 170 162 161 167 172 181 194
154 115 101 101 94 101 113 118 108 88 91 97 90 73 66 75 78 69 62 67 77 94 108 115 120 121 117 113 111 107 105 105 104 104 107 112 121 129 132 134 135 134 131 130 129 129 130 133 136 139 143 145 147 149 152 156 161 164 168 171 174 176 178 178 172 162 160 165 167 161 156 158 165 167 168 170 168 162 163 171 173 167 170 177 179 182 192
159 128 122 103 86 82 86 90 89 83 85 93 96 90 81 80 81 77 73 74 77 80 87 100 108 108 109 110 107 102 98 97 96 94 95 99 104 109 114 119 122 121 119 118 118 117 117 121 127 134 141 145 148 151 156 162 167 170 173 175 177 177 178 177 168 158 159 163 159 153 154 160 167 169 169 170 167 162 165 173 175 174 178 186 187 186 191
120 124 143 137 107 90 80 74 74 79 82 80 78 81 83 80 76 73 71 71 69 69 72 80 85 86 87 88 87 83 77 74 78 81 84 87 90 93 98 104 109 111 112 112 114 114 113 116 124 131 137 142 146 151 160 167 172 174 174 176 181 182 176 167 161 157 157 160 157 156 165 173 174 170 168 169 171 173 176 180 183 183 184 188 189 188 190
139 142 155 148 125 110 98 81 74 78 83 79 72 66 64 63 61 61 62 61 58 55 55 58 62 64 64 66 69 69 64 60 64 70 73 77 80 82 86 96 106 112 115 117 120 120 118 120 124 126 130 135 139 145 157 169 176 180 178 174 170 165 158 156 159 157 156 159 163 165 172 177 174 169 168 170 175 182 185 187 192 193 189 188 187 185 191
271 259 130 115 102 101 100 87 73 70 74 75 69 61 54 51 49 49 49 47 44 43 42 43 46 49 53 57 61 61 58 57 60 64 68 72 74 72 74 81 90 96 102 111 118 118 118 122 125 124 126 129 133 144 159 171 178 181 177 165 153 148 150 155 159 157 157 162 166 165 166 171 173 173 174 175 179 185 186 189 196 196 188 187 190 192 202
303 304 90 111 106 99 96 84 69 67 73 75 71 64 57 52 48 46 44 39 35 35 36 37 38 38 41 46 52 54 52 52 56 60 63 65 67 67 67 69 73 78 82 89 100 107 113 117 116 117 122 127 135 154 172 180 183 181 172 159 151 151 158 161 159 158 159 163 164 165 165 166 168 174 180 185 189 193 189 188 192 192 189 194 204 210 218
272 346 72 101 102 96 92 84 74 74 75 71 67 65 63 57 49 45 42 37 32 29 29 31 34 36 35 34 37 43 46 45 48 54 58 58 59 59 58 58 63 71 77 84 91 98 108 115 114 119 130 135 141 156 168 176 178 170 162 157 157 160 164 163 158 155 159 163 165 167 167 163 164 170 177 184 190 192 189 187 191 194 199 209 218 223 231
133 137 110 103 101 98 89 77 73 76 72 62 63 72 69 53 40 38 41 41 40 35 29 26 30 33 31 25 23 27 36 41 44 48 49 51 52 52 50 48 49 53 62 76 87 96 111 121 122 126 134 139 144 152 156 160 163 159 156 160 163 164 165 162 156 154 160 164 166 168 164 159 162 167 171 178 189 195 195 195 196 197 201 209 219 229 238
51 113 140 131 117 100 85 80 83 85 77 66 67 70 61 39 31 44 49 53 54 48 39 32 31 32 30 23 16 16 24 38 50 51 46 43 44 47 50 48 46 47 50 51 60 87 117 125 125 124 126 133 144 153 156 159 160 155 152 155 158 158 159 158 155 156 160 164 166 168 163 161 166 171 171 175 186 195 195 190 187 188 193 201 216 229 232
40 47 82 118 112 98 90 93 95 89 78 70 67 65 59 55 60 65 63 58 55 53 44 32 28 30 31 26 21 17 18 26 40 49 50 47 44 46 53 53 49 52 53 47 53 84 111 118 121 123 128 140 154 159 161 163 162 156 151 152 154 154 154 154 156 160 163 164 166 167 165 165 169 169 167 167 168 169 169 165 167 188 207 217 227 232 229
48 51 57 72 93 106 109 103 95 88 84 81 74 67 64 63 63 63 60 50 44 44 39 25 17 18 18 16 21 23 19 19 23 29 42 51 47 40 51 62 59 52 45 48 63 86 120 134 136 137 142 152 161 165 165 166 164 158 153 153 153 152 151 152 156 160 160 161 166 168 164 163 164 162 162 163 159 159 166 166 171 201 224 235 239 232 226
60 59 57 60 72 90 99 95 89 87 87 87 83 77 75 75 72 63 53 42 32 30 29 22 15 11 1 1 13 18 13 17 25 26 32 41 32 10 42 77 82 73 53 50 57 58 119 161 165 165 161 161 165 167 165 163 158 152 150 155 158 156 154 151 151 155 159 163 169 167 160 157 160 159 159 161 159 159 170 176 179 200 227 242 239 228 225
63 62 61 60 59 62 64 63 66 71 76 81 85 85 82 82 78 65 53 50 45 31 24 25 19 0 333 326 354 7 5 19 33 32 29 28 19 21 79 97 111 112 96 80 71 77 123 157 173 175 168 167 172 171 166 163 159 153 152 158 163 166 166 158 150 152 162 167 167 163 157 156 161 160 159 164 166 166 172 176 178 189 211 226 220 220 227
68 64 58 53 51 52 51 47 48 55 64 73 79 79 77 76 76 70 62 64 60 44 41 57 48 346 303 282 303 344 340 350 40 79 55 9 4 81 103 120 142 123 109 118 141 147 145 158 182 183 171 166 175 180 174 170 167 162 157 156 159 166 172 167 156 154 163 167 165 163 162 163 164 164 163 165 168 170 174 178 179 183 189 188 187 208 227
65 63 48 35 33 36 40 42 43 45 51 61 70 75 76 75 74 70 63 58 55 49 45 41 27 6 343 315 306 296 275 232 179 154 66 12 8 48 72 80 94 103 119 144 154 154 159 170 188 190 175 164 170 182 181 178 177 173 163 157 159 165 170 168 164 162 164 165 165 166 165 163 163 163 163 163 164 169 174 175 177 181 188 188 189 212 234
48 52 45 35 30 29 28 31 35 40 45 51 58 65 70 70 69 67 61 54 52 51 46 37 30 25 19 11 13 19 36 87 117 87 20 22 33 48 62 78 83 82 114 148 151 160 172 170 167 176 181 176 175 179 183 187 190 187 176 168 168 169 169 170 172 170 167 165 165 163 161 160 159 157 157 158 160 165 168 170 174 180 187 194 206 228 242
34 36 36 35 37 36 30 25 25 31 41 47 49 54 58 59 58 54 48 41 37 35 34 33 31 30 32 36 38 41 49 58 59 44 32 33 40 50 66 86 84 74 76 98 126 152 169 173 173 177 183 189 188 184 185 190 190 184 179 176 171 166 163 165 168 169 168 165 160 156 156 158 155 150 151 154 159 164 167 170 176 187 199 211 229 243 247
41 37 32 30 33 40 43 37 30 32 41 46 48 51 53 51 48 44 38 32 28 26 26 28 31 34 38 40 41 45 49 51 52 51 48 45 48 60 74 84 87 88 80 69 68 86 128 198 203 188 173 174 186 184 181 179 174 171 175 177 175 173 170 165 165 168 168 163 160 161 164 166 161 155 154 158 163 170 178 182 189 205 220 228 236 247 254
65 62 56 48 46 50 55 56 51 49 50 50 50 53 55 53 49 46 43 38 33 32 33 36 41 46 49 49 52 58 58 58 62 61 56 55 64 76 83 85 86 89 83 76 72 78 93 145 177 171 159 163 179 179 174 170 166 164 170 174 176 180 176 168 165 165 165 168 173 173 171 171 172 170 170 172 177 187 201 209 213 218 221 219 225 241 257
77 74 72 68 64 60 58 58 59 61 63 65 63 60 57 55 55 53 50 45 41 42 45 49 53 57 59 59 62 64 64 64 67 64 60 65 76 85 89 88 88 89 85 79 77 80 86 102 133 147 148 167 185 185 180 173 157 149 160 169 170 172 170 164 160 157 162 171 177 173 166 169 176 179 183 188 191 198 210 215 215 213 213 214 221 232 245
76 76 79 82 84 82 81 81 79 78 81 85 80 69 62 63 64 61 55 50 48 50 52 55 59 63 67 69 70 70 67 65 64 65 65 70 81 91 92 88 86 89 87 83 82 88 90 91 98 109 113 124 152 170 171 161 140 136 151 160 161 162 163 160 156 155 159 165 165 162 166 177 182 183 188 190 185 187 195 201 204 209 217 226 228 227 230
83 84 88 94 99 102 100 95 88 81 79 79 74 65 61 64 67 63 56 51 51 52 56 61 65 67 68 70 70 68 63 57 55 60 67 73 79 85 86 79 73 75 79 79 84 92 93 89 91 101 106 106 113 137 152 148 138 135 141 145 147 150 152 152 152 153 154 155 160 167 180 187 186 185 186 185 185 193 202 204 203 207 219 230 230 223 225
86 83 84 87 89 90 88 84 80 77 73 69 65 61 56 57 61 60 54 50 48 49 52 57 61 63 64 65 65 64 60 57 55 59 67 73 75 77 77 75 70 68 73 76 79 81 84 86 93 102 108 113 125 138 142 139 134 136 140 144 148 153 155 158 165 171 177 192 215 228 214 187 184 187 191 197 208 217 220 218 216 217 225 235 235 231 233
86 83 82 81 81 83 82 78 76 76 72 67 64 60 54 52 53 52 52 51 50 49 48 48 50 53 55 57 59 61 59 56 56 60 65 69 71 71 71 70 70 73 75 73 70 68 70 76 86 97 106 126 142 144 138 134 136 144 153 162 167 169 173 184 200 210 211 215 221 215 195 186 190 194 196 205 216 219 218 219 224 231 238 242 242 243 243
87 85 84 83 83 85 84 82 81 79 74 69 65 61 56 53 51 50 50 49 47 47 47 46 46 48 49 48 51 54 54 52 52 56 60 63 65 67 69 68 68 71 72 67 63 67 73 77 90 104 110 121 129 127 124 133 144 142 147 163 167 166 175 188 195 190 185 184 184 184 186 194 202 203 204 213 220 222 222 225 231 239 245 246 246 247 248
84 84 82 81 80 81 83 84 85 84 80 74 68 62 58 55 51 49 50 50 49 49 48 46 44 43 44 45 47 47 45 45 45 46 53 59 57 55 59 62 58 57 65 68 68 72 78 83 94 106 114 125 127 118 110 130 158 147 146 161 165 165 174 180 178 176 179 184 187 189 193 203 212 214 216 221 223 223 229 234 233 233 240 245 249 252 253
80 78 77 76 74 73 76 79 81 83 83 80 70 62 58 57 54 51 51 53 54 54 52 48 44 40 40 45 49 47 44 46 45 41 45 54 52 42 42 49 46 37 54 73 73 68 75 91 95 94 114 138 135 113 90 101 147 154 164 177 176 174 180 183 186 191 194 195 197 197 198 202 206 203 202 206 211 214 220 221 221 231 249 256 255 255 256
78 75 73 71 70 70 74 77 76 73 74 71 64 57 52 50 49 49 50 51 55 60 59 52 46 42 40 42 45 44 44 49 51 45 42 48 46 33 27 39 48 43 47 62 65 35 12 56 80 81 113 140 130 109 87 119 148 147 157 166 165 166 171 174 176 181 185 186 188 189 188 188 189 187 186 190 199 214 229 238 246 259 266 263 258 260 264
75 73 71 70 71 74 78 80 76 69 62 58 54 51 51 50 48 46 44 42 50 70 70 58 46 42 41 41 42 41 37 39 45 46 41 38 37 29 23 24 29 24 18 27 51 316 324 9 48 45 126 146 134 120 124 181 171 162 166 170 168 169 173 174 173 175 178 179 179 180 181 184 189 195 199 206 218 234 244 252 259 264 267 268 265 265 267
69 70 70 71 74 77 81 83 78 69 60 54 47 41 45 55 55 50 46 39 31 65 85 70 54 43 41 45 49 44 32 21 23 29 25 19 21 24 17 8 7 7 4 354 323 294 293 297 313 335 262 165 161 169 202 207 192 187 190 190 187 189 189 188 188 192 192 188 188 193 200 206 210 215 221 234 247 252 254 259 266 271 272 272 268 267 270
71 66 63 63 62 56 57 67 68 57 49 52 49 32 19 25 40 47 44 30 13 16 51 67 61 52 49 51 52 49 38 23 17 18 11 4 4 3 353 346 349 354 354 343 312 293 290 283 273 265 253 217 205 216 226 226 224 224 220 215 212 209 206 204 205 205 202 200 204 211 218 223 231 238 245 253 259 259 259 262 267 268 262 256 258 272 284
68 57 52 53 49 41 38 45 46 34 24 28 30 18 9 14 30 38 28 9 5 14 28 36 32 29 29 30 33 34 28 19 14 12 7 2 357 349 341 334 328 324 326 325 308 290 288 288 280 267 253 242 236 235 233 231 233 235 233 230 229 225 221 221 221 220 219 222 229 236 241 244 247 250 254 259 264 265 263 262 264 266 264 261 264 273 279
50 42 40 42 44 41 36 34 31 24 14 8 8 8 7 5 8 16 15 2 358 4 12 9 2 3 7 9 9 7 4 2 2 2 359 356 352 345 336 326 310 300 301 304 299 287 285 287 286 280 269 255 246 245 242 236 233 234 235 235 237 238 236 233 232 233 236 237 241 247 253 255 254 252 254 258 261 262 262 263 264 265 266 265 263 264 265
42 35 31 32 36 39 36 29 25 24 20 12 8 9 5 352 343 347 359 357 348 345 351 350 345 344 352 357 353 345 341 342 344 343 340 341 342 339 333 326 320 312 303 296 290 284 278 275 278 281 277 263 252 249 246 240 235 237 239 238 237 240 240 237 235 237 237 235 236 243 250 253 253 255 257 259 259 259 260 262 262 261 260 259 256 256 259
Height
1383 1379 1376 1373 1376 1379 1376 1374 1379 1383 1383 1383 1385 1386 1384 1387 1399 1401 1393 1394 1400 1397 1390 1385 1380 1379 1380 1383 1387 1390 1390 1390 1392 1393 1395 1398 1400 1403 1405 1407 1409 1411 1413 1415 1417 1419 1421 1424 1427 1429 1432 1435 1437 1441 1444 1447 1452 1455 1458 1461 1464 1468 1470 1473 1475 1477 1480 1481 1482 1484 1486 1487 1488 1490 1492 1494 1493 1493 1495 1497 1498 1499 1499 1498 1500 1501 1502
1381 1380 1379 1375 1374 1377 1375 1373 1374 1378 1380 1381 1382 1381 1378 1381 1387 1387 1384 1389 1392 1388 1385 1381 1376 1375 1375 1377 1382 1386 1387 1388 1389 1390 1391 1392 1396 1400 1402 1404 1405 1408 1410 1411 1413 1417 1419 1421 1423 1425 1428 1431 1433 1437 1440 1443 1448 1452 1455 1458 1460 1464 1467 1470 1472 1474 1475 1477 1478 1480 1481 1482 1484 1486 1488 1490 1491 1491 1493 1494 1495 1496 1496 1496 1497 1498 1498
1382 1377 1377 1377 1376 1376 1376 1375 1373 1372 1373 1375 1378 1379 1378 1380 1382 1380 1382 1389 1388 1380 1375 1374 1373 1374 1375 1375 1377 1380 1383 1385 1386 1388 1389 1389 1392 1396 1399 1401 1403 1404 1407 1409 1410 1412 1415 1417 1419 1422 1424 1427 1430 1433 1437 1439 1443 1448 1452 1454 1457 1460 1464 1466 1468 1470 1472 1473 1474 1475 1477 1478 1480 1483 1485 1487 1489 1489 1490 1491 1492 1493 1493 1494 1494 1495 1496
1388 1379 1379 1379 1375 1377 1379 1377 1373 1371 1371 1372 1372 1373 1374 1378 1380 1381 1384 1388 1385 1376 1371 1371 1372 1374 1375 1374 1374 1376 1378 1381 1383 1385 1387 1388 1390 1392 1395 1399 1400 1401 1404 1406 1405 1406 1410 1413 1416 1418 1420 1423 1426 1430 1433 1436 1440 1444 1448 1450 1453 1457 1460 1462 1464 1466 1468 1469 1470 1472 1473 1475 1478 1480 1482 1484 1485 1486 1487 1488 1489 1489 1490 1490 1491 1493 1495
1390 1382 1381 1378 1379 1391 1393 1379 1370 1369 1367 1367 1366 1365 1366 1369 1373 1379 1383 1381 1375 1371 1371 1373 1373 1373 1375 1375 1374 1375 1376 1378 1380 1382 1385 1387 1388 1390 1393 1396 1398 1399 1401 1402 1401 1402 1405 1409 1411 1414 1417 1420 1423 1427 1430 1433 1437 1441 1444 1447 1449 1452 1455 1458 1460 1462 1464 1466 1467 1469 1471 1473 1475 1477 1479 1480 1481 1482 1484 1485 1485 1485 1486 1487 1488 1490 1493
1389 1381 1377 1380 1392 1401 1389 1368 1363 1365 1363 1363 1361 1359 1359 1361 1363 1366 1369 1368 1368 1368 1370 1372 1371 1369 1371 1373 1373 1374 1375 1377 1378 1378 1381 1385 1386 1387 1390 1394 1397 1400 1400 1400 1401 1401 1403 1407 1409 1412 1415 1417 1421 1425 1428 1432 1434 1438 1441 1444 1446 1449 1452 1455 1457 1459 1461 1463 1465 1467 1468 1470 1471 1473 1475 1476 1478 1479 1481 1481 1482 1482 1482 1484 1485 1487 1489
1385 1378 1380 1397 1404 1388 1366 1358 1358 1360 1359 1359 1358 1354 1351 1352 1355 1357 1358 1361 1364 1364 1364 1365 1365 1365 1367 1369 1371 1371 1372 1374 1374 1374 1376 1380 1382 1384 1387 1389 1395 1399 1399 1398 1399 1399 1401 1405 1407 1410 1413 1415 1418 1422 1426 1429 1432 1436 1439 1441 1444 1447 1450 1453 1454 1456 1458 1460 1463 1465 1466 1468 1468 1470 1472 1473 1475 1477 1478 1478 1479 1478 1479 1481 1482 1484 1485
1383 1382 1389 1401 1393 1368 1357 1359 1356 1354 1357 1359 1360 1361 1352 1345 1347 1352 1354 1355 1356 1358 1358 1358 1360 1362 1364 1366 1367 1368 1369 1370 1370 1370 1373 1376 1379 1383 1385 1387 1391 1395 1395 1395 1396 1396 1398 1402 1404 1407 1409 1412 1415 1420 1423 1427 1430 1434 1437 1440 1442 1445 1448 1451 1452 1454 1456 1458 1460 1462 1464 1466 1467 1469 1470 1471 1473 1474 1475 1476 1476 1476 1476 1477 1479 1481 1482
1382 1386 1386 1384 1379 1369 1364 1363 1359 1358 1361 1360 1363 1370 1362 1346 1342 1346 1350 1352 1352 1352 1353 1354 1356 1359 1361 1363 1363 1362 1364 1366 1366 1367 1370 1373 1376 1381 1385 1386 1387 1389 1389 1390 1393 1394 1396 1399 1401 1403 1407 1410 1413 1417 1421 1424 1427 1431 1434 1437 1440 1443 1445 1448 1450 1452 1454 1456 1458 1461 1463 1464 1466 1468 1469 1470 1471 1472 1472 1474 1474 1475 1474 1474 1475 1477 1479
1378 1384 1385 1382 1384 1380 1369 1365 1363 1360 1360 1358 1360 1369 1368 1354 1345 1343 1345 1350 1351 1348 1348 1351 1353 1356 1362 1365 1360 1356 1359 1362 1363 1365 1368 1371 1374 1376 1380 1382 1382 1383 1384 1386 1389 1391 1393 1396 1399 1401 1405 1408 1411 1415 1418 1421 1425 1428 1431 1434 1437 1440 1443 1446 1448 1450 1453 1455 1457 1460 1462 1463 1465 1466 1467 1468 1469 1470 1470 1471 1472 1472 1472 1472 1473 1474 1476
1377 1383 1388 1385 1383 1376 1367 1365 1363 1360 1361 1358 1361 1373 1373 1357 1349 1346 1344 1347 1349 1347 1347 1348 1350 1357 1367 1367 1358 1354 1358 1359 1360 1364 1366 1368 1371 1373 1375 1377 1378 1379 1380 1383 1386 1388 1391 1394 1396 1399 1402 1405 1409 1413 1416 1419 1423 1426 1429 1432 1435 1438 1441 1444 1447 1449 1451 1454 1456 1459 1461 1462 1464 1465 1466 1467 1467 1468 1467 1468 1469 1470 1470 1471 1472 1472 1474
1377 1380 1383 1377 1370 1365 1361 1361 1362 1362 1362 1360 1373 1389 1381 1359 1354 1354 1349 1347 1345 1343 1345 1348 1349 1355 1364 1364 1358 1356 1356 1355 1357 1362 1365 1366 1367 1369 1371 1373 1374 1375 1378 1380 1383 1385 1388 1390 1393 1396 1400 1403 1406 1410 1414 1418 1421 1424 1427 1430 1433 1437 1440 1443 1446 1448 1450 1452 1455 1457 1459 1461 1462 1464 1464 1465 1466 1466 1466 1465 1466 1467 1468 1470 1471 1472 1473
1374 1378 1380 1374 1365 1359 1357 1358 1361 1361 1363 1369 1382 1387 1374 1360 1360 1359 1354 1350 1345 1342 1346 1350 1349 1350 1354 1358 1360 1359 1355 1354 1357 1361 1362 1363 1364 1366 1368 1370 1372 1373 1376 1378 1382 1384 1387 1389 1391 1394 1397 1400 1404 1409 1413 1417 1420 1423 1426 1429 1432 1436 1439 1441 1444 1446 1449 1451 1453 1455 1456 1458 1460 1461 1461 1462 1463 1464 1464 1463 1462 1464 1466 1467 1469 1470 1472
1367 1370 1375 1376 1369 1359 1354 1357 1358 1360 1370 1379 1377 1368 1362 1362 1361 1358 1356 1354 1349 1348 1350 1349 1348 1349 1351 1356 1360 1360 1359 1358 1359 1360 1361 1362 1363 1365 1366 1367 1369 1372 1374 1377 1381 1384 1386 1389 1393 1394 1395 1397 1401 1407 1412 1415 1418 1421 1423 1426 1430 1433 1436 1439 1443 1446 1449 1451 1453 1454 1455 1455 1456 1457 1458 1459 1459 1461 1461 1459 1460 1462 1463 1465 1468 1469 1471
1364 1367 1374 1380 1374 1360 1354 1358 1360 1362 1369 1372 1365 1359 1360 1361 1360 1359 1359 1356 1353 1353 1352 1350 1350 1351 1353 1356 1360 1362 1361 1359 1358 1360 1361 1362 1363 1363 1364 1366 1369 1371 1374 1377 1380 1383 1385 1388 1392 1394 1395 1396 1399 1405 1409 1412 1415 1418 1421 1424 1427 1431 1434 1437 1440 1443 1446 1449 1454 1456 1455 1453 1453 1454 1455 1456 1456 1457 1457 1457 1458 1460 1461 1463 1466 1468 1469
1361 1366 1368 1368 1361 1352 1353 1359 1362 1362 1363 1363 1361 1361 1361 1360 1360 1362 1360 1358 1358 1356 1353 1352 1354 1354 1355 1358 1361 1361 1360 1358 1358 1360 1361 1362 1364 1365 1366 1368 1370 1371 1374 1377 1380 1383 1385 1387 1390 1393 1394 1395 1398 1402 1406 1410 1414 1417 1421 1424 1427 1430 1434 1437 1439 1439 1440 1444 1450 1453 1453 1452 1451 1452 1453 1454 1454 1455 1455 1456 1458 1459 1459 1462 1465 1467 1468
1353 1355 1356 1354 1352 1351 1355 1360 1362 1362 1362 1362 1363 1362 1361 1361 1362 1362 1362 1362 1362 1359 1356 1355 1355 1357 1359 1361 1361 1361 1359 1358 1359 1361 1362 1364 1365 1367 1369 1370 1371 1372 1375 1377 1380 1383 1385 1387 1390 1392 1394 1395 1398 1402 1406 1410 1413 1417 1420 1423 1426 1429 1433 1437 1439 1438 1437 1440 1444 1447 1450 1451 1451 1451 1451 1452 1453 1454 1455 1457 1458 1458 1459 1462 1464 1466 1468
1354 1355 1356 1355 1355 1355 1357 1361 1366 1365 1363 1362 1363 1363 1364 1364 1363 1363 1364 1365 1365 1362 1360 1357 1357 1360 1361 1362 1362 1362 1361 1361 1361 1362 1364 1365 1367 1369 1371 1372 1373 1375 1377 1379 1381 1383 1385 1387 1389 1392 1396 1399 1401 1404 1408 1411 1414 1417 1419 1422 1424 1426 1429 1433 1435 1436 1437 1439 1441 1443 1446 1449 1450 1450 1451 1452 1452 1454 1455 1457 1458 1458 1459 1462 1464 1466 1467
1363 1365 1364 1360 1360 1359 1359 1363 1367 1365 1363 1364 1365 1366 1367 1366 1366 1366 1367 1368 1368 1366 1364 1362 1362 1362 1362 1363 1365 1366 1366 1366 1365 1365 1367 1368 1370 1373 1374 1375 1377 1379 1380 1381 1382 1383 1385 1388 1391 1394 1398 1401 1403 1406 1409 1412 1415 1417 1420 1422 1424 1426 1428 1430 1432 1434 1437 1440 1442 1442 1444 1447 1449 1451 1451 1451 1452 1453 1454 1456 1457 1457 1459 1461 1463 1464 1466
1362 1367 1367 1364 1364 1364 1363 1365 1367 1365 1364 1365 1366 1368 1370 1371 1370 1370 1370 1371 1371 1370 1369 1369 1367 1366 1366 1368 1369 1370 1371 1372 1371 1370 1371 1372 1374 1376 1377 1379 1380 1381 1381 1383 1384 1384 1387 1390 1392 1395 1398 1401 1404 1407 1410 1412 1415 1417 1419 1422 1423 1425 1427 1428 1430 1433 1436 1440 1442 1443 1444 1447 1449 1450 1451 1451 1452 1452 1454 1455 1456 1457 1459 1460 1462 1463 1465
1362 1367 1368 1366 1367 1369 1369 1369 1369 1368 1367 1367 1368 1371 1374 1374 1374 1374 1375 1376 1376 1376 1376 1375 1372 1371 1371 1371 1370 1372 1374 1375 1375 1375 1375 1376 1376 1377 1378 1380 1381 1381 1382 1384 1384 1386 1388 1391 1394 1397 1399 1402 1405 1407 1409 1412 1415 1417 1419 1421 1422 1424 1426 1428 1430 1432 1436 1439 1441 1443 1444 1445 1447 1448 1449 1450 1451 1451 1452 1453 1455 1456 1458 1459 1461 1462 1464
1369 1368 1366 1366 1368 1371 1373 1373 1373 1372 1371 1370 1372 1374 1376 1376 1377 1377 1378 1380 1379 1379 1379 1378 1377 1376 1374 1373 1373 1375 1376 1378 1379 1379 1378 1379 1380 1380 1381 1382 1382 1383 1384 1385 1386 1388 1390 1393 1396 1399 1401 1404 1407 1409 1410 1412 1414 1416 1418 1420 1422 1424 1426 1428 1430 1432 1436 1439 1441 1442 1443 1444 1445 1446 1447 1449 1449 1450 1451 1453 1454 1456 1457 1458 1460 1462 1463
1374 1369 1365 1366 1368 1370 1374 1376 1376 1375 1373 1372 1373 1377 1378 1378 1377 1378 1379 1380 1380 1379 1379 1379 1379 1379 1377 1377 1377 1378 1381 1383 1383 1382 1382 1382 1383 1384 1385 1385 1385 1386 1387 1388 1389 1391 1393 1395 1398 1400 1403 1406 1408 1409 1410 1411 1413 1416 1417 1420 1422 1424 1427 1429 1431 1433 1437 1439 1440 1442 1443 1443 1444 1446 1447 1448 1449 1450 1451 1453 1454 1456 1456 1458 1459 1461 1462
1375 1372 1369 1368 1368 1371 1376 1377 1376 1375 1374 1373 1374 1378 1380 1380 1381 1381 1381 1382 1382 1381 1381 1381 1381 1381 1381 1381 1381 1382 1385 1387 1386 1385 1385 1384 1385 1387 1388 1388 1388 1389 1389 1390 1392 1393 1395 1397 1399 1402 1404 1406 1408 1409 1410 1411 1413 1415 1417 1420 1422 1425 1427 1429 1430 1433 1436 1438 1439 1441 1442 1442 1444 1445 1446 1447 1448 1450 1451 1452 1453 1455 1456 1457 1459 1460 1461
1375 1374 1371 1370 1371 1374 1376 1376 1376 1376 1376 1376 1378 1381 1383 1384 1385 1386 1386 1387 1387 1386 1384 1384 1384 1383 1384 1384 1386 1387 1389 1389 1389 1388 1387 1387 1388 1389 1390 1391 1392 1391 1392 1393 1394 1395 1397 1398 1400 1403 1405 1406 1408 1409 1410 1412 1413 1415 1418 1421 1423 1426 1427 1428 1430 1433 1435 1437 1439 1440 1440 1441 1443 1444 1445 1446 1447 1449 1450 1451 1453 1454 1455 1457 1458 1460 1461
1373 1374 1373 1373 1375 1376 1376 1376 1377 1378 1379 1381 1383 1384 1386 1388 1389 1390 1392 1393 1393 1392 1391 1390 1389 1388 1388 1389 1391 1392 1391 1391 1390 1389 1388 1389 1389 1390 1392 1394 1395 1394 1394 1395 1396 1397 1399 1400 1401 1403 1405 1407 1409 1410 1412 1413 1415 1416 1419 1422 1424 1426 1427 1428 1430 1432 1434 1436 1438 1439 1439 1440 1442 1443 1445 1446 1447 1447 1449 1450 1452 1454 1455 1456 1458 1459 1460
1373 1374 1374 1374 1375 1377 1378 1379 1380 1381 1382 1384 1386 1386 1388 1390 1392 1393 1394 1395 1396 1397 1397 1396 1394 1393 1393 1395 1396 1396 1395 1393 1392 1391 1391 1391 1392 1393 1394 1396 1397 1397 1397 1397 1398 1399 1401 1401 1402 1404 1406 1409 1410 1412 1413 1415 1416 1417 1420 1422 1424 1425 1426 1428 1429 1431 1433 1435 1437 1438 1438 1439 1441 1443 1444 1445 1446 1446 1447 1449 1451 1453 1454 1456 1457 1458 1459
1376 1375 1375 1374 1376 1380 1383 1384 1385 1384 1384 1386 1387 1387 1388 1391 1394 1395 1396 1398 1399 1400 1400 1399 1398 1398 1399 1401 1402 1401 1399 1397 1395 1394 1394 1395 1395 1396 1397 1399 1400 1400 1399 1399 1400 1402 1403 1404 1405 1405 1407 1409 1411 1413 1414 1415 1416 1418 1420 1422 1423 1425 1426 1428 1429 1431 1433 1434 1436 1437 1438 1439 1440 1442 1443 1444 1445 1446 1447 1449 1451 1452 1453 1455 1456 1457 1458
1381 1380 1379 1379 1381 1385 1387 1388 1388 1387 1387 1389 1389 1388 1391 1395 1397 1398 1398 1399 1400 1402 1402 1402 1401 1401 1401 1402 1403 1403 1402 1400 1399 1397 1397 1396 1397 1398 1399 1400 1401 1401 1401 1401 1402 1402 1404 1405 1406 1407 1408 1410 1412 1414 1414 1415 1417 1419 1421 1422 1424 1425 1426 1428 1429 1431 1432 1434 1435 1436 1437 1438 1440 1442 1443 1444 1445 1446 1447 1450 1451 1451 1451 1453 1455 1456 1456
1388 1387 1386 1386 1388 1389 1389 1390 1391 1391 1391 1392 1393 1393 1396 1400 1401 1401 1401 1401 1402 1403 1404 1403 1403 1403 1403 1403 1404 1404 1403 1402 1401 1401 1400 1400 1400 1401 1401 1401 1402 1403 1403 1403 1402 1402 1404 1406 1408 1409 1410 1411 1413 1414 1415 1416 1418 1419 1421 1423 1423 1424 1425 1427 1428 1430 1431 1433 1434 1435 1436 1438 1439 1441 1442 1443 1445 1446 1447 1449 1450 1450 1450 1452 1453 1454 1455
1391 1391 1391 1393 1394 1393 1393 1393 1395 1395 1395 1396 1396 1397 1399 1401 1402 1403 1403 1403 1404 1405 1406 1406 1406 1405 1405 1405 1405 1404 1404 1403 1404 1405 1405 1405 1404 1404 1403 1403 1404 1404 1403 1403 1404 1405 1406 1408 1410 1410 1410 1412 1413 1414 1415 1416 1417 1419 1420 1421 1422 1423 1424 1426 1427 1429 1431 1431 1433 1434 1436 1437 1439 1440 1442 1443 1444 1445 1447 1448 1449 1450 1450 1451 1452 1453 1454
1393 1393 1394 1395 1396 1396 1396 1397 1399 1399 1399 1399 1399 1399 1401 1402 1404 1404 1405 1405 1406 1407 1407 1407 1408 1408 1408 1407 1407 1406 1407 1406 1406 1407 1408 1407 1406 1405 1405 1405 1405 1404 1403 1404 1406 1407 1408 1410 1410 1410 1410 1412 1413 1414 1415 1416 1417 1418 1420 1420 1421 1422 1424 1425 1427 1429 1430 1430 1432 1433 1435 1437 1438 1440 1441 1442 1443 1445 1446 1447 1448 1449 1450 1451 1452 1452 1452
1395 1395 1396 1397 1397 1398 1399 1401 1402 1402 1402 1402 1402 1401 1402 1403 1405 1405 1406 1406 1407 1407 1407 1407 1407 1408 1408 1407 1407 1408 1408 1408 1407 1408 1407 1406 1405 1405 1405 1405 1405 1404 1404 1406 1407 1408 1409 1410 1410 1410 1410 1411 1412 1414 1415 1416 1417 1418 1420 1421 1421 1422 1423 1424 1426 1428 1429 1430 1432 1433 1435 1436 1438 1439 1440 1441 1443 1444 1445 1447 1448 1449 1450 1451 1452 1451 1451
1396 1397 1398 1398 1399 1400 1402 1403 1404 1404 1403 1403 1404 1403 1403 1404 1405 1405 1406 1406 1407 1407 1407 1407 1407 1407 1407 1407 1407 1407 1407 1407 1407 1407 1406 1406 1406 1405 1405 1406 1406 1405 1405 1406 1406 1407 1408 1408 1408 1409 1409 1410 1411 1413 1414 1415 1417 1418 1419 1420 1421 1422 1423 1424 1425 1427 1429 1431 1432 1432 1434 1435 1437 1438 1439 1441 1442 1444 1445 1446 1447 1448 1449 1450 1450 1450 1450
1398 1398 1399 1399 1401 1402 1403 1404 1405 1405 1404 1405 1405 1405 1405 1405 1405 1405 1406 1406 1407 1407 1406 1406 1406 1406 1406 1406 1406 1406 1406 1406 1406 1406 1406 1406 1406 1406 1406 1406 1406 1406 1406 1405 1405 1405 1406 1406 1406 1407 1408 1409 1411 1412 1414 1415 1417 1417 1418 1420 1421 1422 1423 1424 1426 1428 1429 1430 1431 1432 1434 1435 1436 1437 1438 1440 1442 1443 1444 1445 1446 1447 1448 1449 1449 1448 1448
1401 1401 1401 1402 1403 1405 1405 1406 1407 1407 1406 1406 1406 1406 1406 1406 1405 1405 1406 1406 1406 1406 1406 1406 1405 1405 1405 1405 1406 1406 1406 1406 1405 1405 1406 1406 1406 1406 1406 1406 1406 1406 1405 1405 1405 1405 1405 1405 1405 1405 1407 1409 1410 1411 1413 1414 1415 1416 1417 1419 1421 1422 1423 1425 1426 1427 1429 1430 1432 1432 1433 1434 1435 1436 1437 1440 1442 1442 1443 1444 1444 1445 1447 1448 1447 1446 1447
1405 1404 1404 1405 1406 1407 1407 1408 1409 1408 1408 1408 1408 1408 1408 1407 1407 1407 1408 1408 1408 1407 1407 1406 1406 1406 1406 1406 1406 1406 1406 1406 1406 1406 1406 1406 1406 1406 1406 1406 1406 1406 1406 1406 1406 1406 1405 1405 1405 1406 1407 1408 1409 1410 1411 1412 1414 1415 1417 1418 1420 1421 1422 1424 1426 1427 1428 1430 1431 1431 1432 1433 1434 1435 1437 1439 1440 1441 1442 1443 1443 1443 1444 1446 1446 1446 1445
1407 1408 1408 1409 1409 1410 1410 1410 1411 1411 1411 1411 1411 1411 1410 1409 1409 1410 1410 1410 1410 1409 1408 1408 1408 1408 1408 1408 1408 1408 1408 1407 1407 1407 1407 1406 1406 1406 1406 1406 1406 1406 1406 1406 1406 1406 1405 1405 1405 1406 1407 1407 1408 1409 1410 1412 1413 1415 1416 1418 1420 1421 1422 1424 1425 1426 1427 1429 1430 1431 1432 1434 1435 1435 1436 1437 1438 1439 1440 1441 1442 1442 1443 1444 1445 1445 1445
1410 1410 1411 1412 1412 1412 1413 1413 1414 1414 1414 1413 1413 1413 1412 1411 1412 1412 1412 1412 1411 1410 1410 1410 1409 1409 1409 1409 1409 1409 1409 1408 1408 1408 1407 1407 1407 1406 1406 1406 1406 1406 1406 1406 1406 1406 1405 1405 1406 1406 1407 1407 1408 1408 1410 1412 1413 1415 1417 1418 1420 1421 1423 1424 1425 1425 1426 1428 1430 1431 1433 1434 1435 1435 1436 1436 1437 1438 1439 1439 1440 1441 1442 1442 1443 1444 1444
1413 1413 1413 1414 1414 1414 1415 1415 1416 1416 1415 1415 1414 1414 1414 1414 1414 1414 1413 1413 1412 1412 1412 1411 1411 1410 1410 1410 1410 1410 1409 1409 1408 1408 1407 1407 1407 1406 1406 1406 1406 1406 1406 1406 1406 1406 1406 1406 1407 1407 1408 1408 1409 1410 1411 1412 1414 1415 1417 1419 1420 1421 1422 1423 1424 1425 1426 1427 1429 1430 1431 1432 1433 1434 1435 1436 1436 1437 1438 1438 1439 1440 1441 1441 1442 1442 1443
1415 1415 1415 1415 1416 1416 1416 1416 1416 1416 1416 1416 1416 1416 1416 1415 1415 1415 1414 1414 1414 1413 1413 1412 1412 1411 1411 1411 1410 1410 1410 1409 1408 1408 1407 1407 1407 1407 1407 1407 1407 1407 1406 1407 1407 1407 1408 1408 1408 1409 1409 1410 1411 1412 1413 1414 1415 1416 1418 1419 1420 1421 1422 1422 1423 1425 1426 1427 1428 1429 1430 1431 1432 1433 1434 1435 1436 1437 1437 1438 1439 1440 1440 1441 1441 1441 1442
1417 1417 1417 1417 1418 1418 1418 1418 1417 1417 1417 1417 1417 1417 1417 1417 1416 1416 1416 1415 1415 1415 1414 1413 1413 1412 1412 1412 1412 1411 1411 1411 1410 1409 1409 1409 1409 1408 1408 1408 1408 1408 1407 1408 1408 1409 1409 1409 1410 1410 1411 1412 1412 1413 1414 1415 1416 1417 1418 1419 1420 1420 1421 1422 1423 1424 1425 1426 1427 1428 1429 1431 1432 1432 1433 1434 1435 1436 1436 1437 1438 1438 1439 1440 1440 1440 1441
1419 1419 1419 1420 1420 1420 1419 1419 1419 1419 1419 1419 1419 1419 1419 1418 1418 1418 1417 1417 1417 1416 1416 1415 1415 1414 1414 1414 1413 1413 1412 1412 1411 1411 1410 1410 1410 1409 1409 1409 1409 1409 1409 1409 1410 1411 1411 1411 1411 1412 1412 1413 1414 1414 1415 1416 1417 1417 1418 1418 1419 1420 1421 1422 1422 1423 1424 1425 1426 1428 1429 1430 1431 1431 1432 1433 1434 1435 1435 1435 1436 1437 1438 1438 1438 1439 1439
1421 1421 1421 1422 1422 1421 1421 1422 1421 1421 1422 1422 1421 1421 1421 1420 1420 1420 1419 1419 1419 1418 1418 1417 1417 1416 1416 1415 1414 1414 1414 1413 1413 1412 1412 1411 1411 1411 1411 1411 1411 1411 1411 1411 1412 1413 1413 1413 1413 1413 1414 1414 1415 1415 1416 1417 1417 1418 1418 1419 1419 1420 1421 1422 1423 1423 1424 1425 1426 1428 1429 1430 1430 1431 1431 1432 1433 1434 1434 1435 1436 1436 1436 1437 1437 1437 1437
1423 1423 1423 1423 1423 1423 1423 1423 1423 1423 1423 1423 1423 1423 1422 1422 1422 1421 1421 1421 1420 1420 1420 1419 1418 1417 1417 1416 1416 1415 1415 1414 1414 1413 1413 1413 1413 1413 1413 1413 1413 1413 1412 1413 1414 1414 1414 1413 1414 1414 1415 1415 1416 1416 1417 1418 1418 1418 1419 1419 1420 1420 1421 1422 1423 1424 1424 1425 1426 1427 1428 1429 1430 1430 1431 1432 1433 1433 1434 1434 1435 1435 1435 1435 1436 1436 1436
1425 1425 1425 1425 1425 1425 1425 1424 1424 1424 1424 1424 1423 1423 1423 1423 1423 1422 1422 1422 1422 1421 1421 1420 1419 1419 1418 1417 1417 1417 1416 1416 1416 1415 1415 1414 1414 1414 1414 1414 1414 1414 1414 1414 1415 1415 1414 1414 1414 1415 1415 1416 1416 1417 1418 1418 1419 1419 1419 1420 1420 1421 1421 1422 1423 1424 1425 1426 1426 1427 1428 1429 1429 1430 1431 1431 1432 1432 1433 1433 1433 1433 1434 1434 1434 1434 1434
1427 1427 1427 1427 1427 1427 1426 1426 1426 1426 1425 1425 1425 1424 1424 1424 1424 1424 1423 1423 1422 1422 1421 1421 1421 1420 1420 1419 1419 1418 1418 1417 1417 1417 1416 1416 1416 1415 1415 1415 1415 1415 1414 1415 1415 1415 1415 1415 1415 1415 1416 1416 1417 1418 1419 1419 1419 1420 1420 1420 1421 1421 1422 1422 1422 1423 1424 1425 1426 1426 1427 1428 1429 1429 1430 1430 1430 1431 1431 1431 1432 1432 1432 1432 1432 1432 1432
1428 1428 1428 1428 1428 1428 1427 1427 1427 1427 1427 1427 1427 1426 1426 1426 1425 1425 1424 1424 1423 1422 1421 1421 1421 1421 1421 1420 1419 1419 1419 1419 1418 1418 1418 1417 1417 1416 1416 1416 1415 1415 1415 1415 1415 1415 1415 1415 1415 1416 1416 1417 1417 1418 1419 1419 1420 1420 1420 1420 1420 1421 1421 1422 1422 1423 1424 1424 1425 1425 1426 1427 1428 1428 1428 1429 1429 1430 1430 1430 1431 1431 1431 1431 1431 1431 1431
1429 1429 1429 1429 1429 1429 1428 1428 1428 1428 1428 1428 1428 1428 1427 1426 1425 1425 1425 1424 1423 1422 1421 1421 1421 1421 1421 1420 1420 1420 1420 1420 1420 1419 1419 1418 1418 1417 1417 1417 1416 1415 1416 1416 1416 1416 1415 1416 1416 1416 1416 1416 1417 1418 1418 1419 1419 1420 1420 1420 1420 1420 1421 1421 1422 1422 1423 1423 1424 1425 1425 1426 1426 1427 1427 1428 1428 1428 1429 1429 1429 1429 1429 1429 1430 1430 1430
1430 1430 1430 1430 1430 1430 1430 1429 1429 1429 1429 1429 1428 1428 1427 1426 1426 1426 1426 1425 1424 1423 1422 1422 1422 1421 1421 1421 1421 1421 1421 1421 1420 1420 1419 1419 1418 1418 1417 1417 1417 1416 1416 1417 1417 1416 1415 1415 1415 1415 1415 1415 1416 1417 1417 1417 1418 1419 1419 1419 1420 1420 1420 1420 1421 1421 1422 1423 1423 1424 1424 1424 1425 1425 1426 1426 1427 1427 1427 1427 1427 1427 1426 1427 1428 1428 1428
1431 1431 1431 1432 1432 1432 1431 1431 1431 1431 1430 1430 1429 1428 1428 1427 1426 1426 1426 1425 1425 1424 1423 1423 1423 1422 1422 1422 1421 1421 1421 1421 1421 1420 1420 1419 1418 1418 1418 1417 1417 1417 1416 1416 1416 1416 1415 1415 1414 1414 1414 1414 1415 1415 1416 1416 1416 1417 1417 1418 1418 1419 1418 1418 1419 1420 1421 1421 1422 1423 1423 1423 1424 1424 1425 1425 1425 1425 1425 1426 1426 1425 1425 1426 1426 1426 1426
1432 1432 1432 1432 1432 1432 1432 1432 1432 1431 1431 1430 1429 1429 1428 1427 1427 1426 1426 1426 1425 1425 1424 1424 1424 1423 1423 1423 1422 1422 1422 1422 1421 1421 1420 1419 1419 1418 1418 1417 1417 1416 1416 1416 1415 1415 1415 1415 1414 1414 1413 1413 1414 1414 1414 1414 1414 1415 1415 1416 1416 1417 1417 1417 1417 1418 1419 1420 1420 1421 1421 1422 1422 1423 1423 1423 1423 1423 1423 1424 1424 1424 1423 1423 1424 1424 1424